Location: Newark
(48.1500°N, 2.9667°W)
Time: 15:38:55
(UTC+00:00)

Altair - Pass Details

Date: 26 January 2020
Orbit: 1502 x 1682 km, 47.2° (Epoch: 24 February)

Event Time Altitude Azimuth Distance (km) Brightness Sun altitude
Rises 09:23:03 0° 240° (WSW) 4,880 10.0 11.8°
Reaches altitude 10° 09:26:10 10° 238° (WSW) 3,910 9.6 12.1°
Maximum altitude 09:36:10 70° 158° (SSE) 1,770 8.4 13.2°
Drops below altitude 10° 09:46:14 10° 78° (ENE) 3,938 10.1 14.3°
Sets 09:49:23 0° 76° (ENE) 4,917 10.5 14.6°
